Dewpoint
49 45 38 32 29 25 21 18 19 13 19 21 21 25 25 25 28 39 61 62 68 68 70 71 70 70 70 70 70 70 70 70 70 70 69 68 68 68 67 68 68 68 67 66 64 64 64 66 67
43 37 32 31 25 22 22 21 17 16 18 17 16 18 23 36 55 60 60 62 66 67 68 70 71 70 70 70 70 70 70 70 70 69 69 68 68 68 69 68 68 67 67 65 64 64 65 66 66
43 38 32 28 26 21 21 18 14 16 17 16 15 18 24 42 49 58 62 64 64 67 67 69 70 71 70 70 69 70 69 69 69 69 68 68 68 69 68 67 67 67 66 64 64 64 65 66 66
34 34 30 23 22 23 22 20 17 17 17 18 20 22 43 47 49 58 63 64 64 63 66 68 69 71 70 70 69 69 69 69 69 69 68 69 68 68 67 66 67 66 65 65 64 64 64 63 63
31 28 23 21 20 19 19 17 18 17 18 22 24 24 39 54 57 59 61 64 63 64 67 67 67 70 70 70 69 69 68 67 69 68 68 69 68 67 66 66 66 65 65 64 64 64 62 61 61
25 25 19 17 18 19 17 17 18 19 18 18 18 22 45 54 55 59 60 62 64 65 67 67 67 69 69 69 68 67 64 62 60 62 67 68 68 66 65 65 65 65 64 63 64 63 60 60 58
25 24 19 18 17 17 16 18 17 18 17 19 26 26 49 52 57 57 59 62 63 64 67 66 67 67 67 67 66 64 64 63 62 60 66 66 66 66 65 65 65 65 64 63 63 62 61 57 56
26 25 22 20 18 16 16 18 20 19 17 26 26 23 46 52 56 56 57 59 63 64 65 67 66 65 65 63 63 63 62 61 61 59 63 66 65 65 65 65 64 64 64 63 62 61 59 56 53
27 23 20 19 17 17 17 17 18 19 16 20 21 23 44 54 56 56 57 58 60 64 64 64 66 64 63 61 61 62 61 61 61 61 58 65 64 64 64 64 64 63 63 63 62 60 57 55 55
25 20 19 19 18 17 14 13 17 18 17 19 23 50 53 53 52 52 54 56 58 59 61 64 64 65 63 61 61 61 60 61 62 61 60 65 63 62 63 63 63 63 62 62 61 58 55 53 52
25 20 19 19 20 19 17 13 13 15 17 20 27 44 48 48 48 49 50 53 54 58 61 61 62 63 64 62 61 62 60 61 61 60 61 64 63 63 63 62 62 62 61 59 58 55 53 51 51
24 22 21 19 19 17 16 14 13 14 16 21 20 29 47 47 47 49 50 51 54 57 58 61 62 62 63 64 62 62 60 61 61 63 64 64 62 62 61 60 60 60 58 57 55 51 50 50 50
24 22 19 17 16 16 15 13 13 13 16 17 20 38 39 45 47 48 53 53 55 57 60 59 60 63 63 63 63 63 61 61 60 63 64 63 62 60 58 58 57 56 56 54 51 51 47 48 49
24 23 20 19 15 13 12 13 15 14 17 17 17 39 43 43 47 48 53 53 55 59 59 58 57 60 63 62 63 64 63 63 61 62 62 63 62 58 56 55 53 54 53 50 51 52 47 47 48
24 22 21 19 17 14 12 13 14 15 15 15 17 28 44 44 47 47 51 53 57 59 58 57 58 59 61 61 62 63 63 62 61 62 61 61 60 58 56 53 53 54 53 49 51 52 50 49 51
26 22 18 19 18 17 16 13 15 15 14 13 14 20 42 45 47 47 53 55 57 59 57 57 58 59 60 61 62 61 62 61 61 60 60 59 58 59 56 52 53 54 53 51 52 52 50 49 48
24 20 20 18 18 16 15 12 14 16 15 18 21 26 39 45 47 48 54 55 57 59 57 57 57 58 59 60 61 61 61 60 60 59 59 58 58 58 58 55 54 56 53 54 53 51 50 47 47
23 22 20 17 17 16 14 13 14 18 19 21 24 26 38 43 45 49 53 55 58 59 58 57 57 58 59 59 60 59 59 59 59 58 58 58 57 57 56 58 57 57 54 56 52 51 50 49 48
26 24 23 21 18 18 18 15 15 16 17 24 25 25 33 42 46 50 54 55 58 58 58 57 58 58 58 57 57 57 56 58 58 58 57 58 57 57 57 58 57 58 56 55 52 51 49 49 48
25 23 21 22 23 22 21 24 17 17 18 19 25 26 30 43 47 49 54 55 57 57 57 57 57 57 58 57 57 57 57 57 58 57 57 56 56 56 56 56 56 58 56 56 54 51 52 50 50
23 22 21 21 22 24 20 18 15 17 18 19 24 27 30 43 47 49 53 54 55 57 57 57 56 57 58 57 57 57 57 56 56 56 55 55 55 56 55 56 56 57 57 55 53 52 50 50 51
24 26 24 22 23 27 29 19 18 17 18 19 18 26 30 43 47 49 51 53 53 54 56 56 56 57 57 57 56 56 55 54 54 55 55 54 57 56 55 55 55 55 54 53 54 54 52 52 50
25 30 30 31 32 32 29 21 19 19 18 19 18 24 30 43 47 48 50 53 53 53 56 56 57 57 56 57 56 56 55 55 54 53 53 55 55 56 54 54 54 55 55 54 55 55 54 54 53
34 33 30 34 33 29 30 25 18 18 19 20 19 23 26 43 46 48 50 52 53 55 55 56 56 56 56 57 56 55 54 54 53 52 52 53 54 56 54 55 54 54 55 56 56 56 55 55 53
32 32 29 28 28 27 26 23 20 21 21 21 21 23 28 44 45 47 49 51 52 53 54 56 55 55 56 56 56 55 54 53 52 50 49 51 53 55 55 55 56 56 55 56 57 56 56 56 54
30 35 30 24 25 22 23 19 19 22 22 20 19 25 33 43 45 47 48 50 53 53 53 54 55 55 55 56 55 55 54 54 52 50 48 49 52 54 56 55 57 56 56 57 57 57 56 56 55
33 33 34 32 29 30 30 20 21 22 22 22 22 24 32 42 44 47 47 48 52 53 53 54 54 53 56 55 56 55 55 54 54 52 49 49 52 53 54 56 55 56 55 55 56 56 55 55 55
35 35 30 32 25 25 26 28 19 20 20 20 20 23 28 38 43 46 47 47 52 53 54 55 55 54 55 56 56 55 55 55 54 54 51 50 50 52 54 55 55 55 55 54 54 53 54 54 54
35 34 36 34 33 26 28 30 36 30 27 24 28 30 33 37 43 46 46 47 49 53 54 54 55 55 55 55 56 56 55 55 55 54 54 53 51 51 53 54 55 55 54 53 52 52 52 52 52
33 37 36 31 29 29 26 29 38 32 28 26 29 28 30 36 41 45 46 47 47 50 53 54 54 55 55 55 55 55 55 56 55 54 53 54 54 53 53 54 53 55 54 53 52 51 50 51 51
Wind_Speed
8 8 2 2 1 5 11 12 16 3 8 9 11 10 3 3 3 3 7 7 18 18 17 17 20 20 20 23 20 19 19 21 23 22 24 23 23 24 24 23 25 26 27 27 25 24 27 28 28
5 5 3 4 4 7 14 14 17 18 15 13 7 3 4 4 9 14 9 6 16 16 17 17 17 19 21 23 24 23 21 22 23 22 24 24 24 25 24 25 25 25 26 27 26 26 27 26 26
3 5 2 4 6 17 10 6 7 12 12 8 3 3 7 10 14 11 14 13 9 17 17 18 19 19 22 23 24 24 22 22 23 23 24 26 24 25 27 26 25 25 25 26 27 25 23 21 21
3 2 5 6 20 26 27 28 6 6 6 11 5 2 6 5 3 15 17 15 11 11 18 22 23 19 19 22 26 27 28 27 26 25 26 27 28 25 27 27 25 25 26 27 27 24 20 18 19
3 4 9 10 20 29 26 21 9 7 2 9 9 7 5 6 17 15 13 11 12 7 15 21 22 22 25 25 25 27 26 21 23 27 27 30 29 28 28 26 26 25 27 25 27 21 18 19 19
4 4 7 17 23 29 24 24 11 11 9 5 8 8 6 16 15 12 9 8 9 8 13 14 17 21 23 26 29 27 21 14 12 17 23 25 30 29 28 27 26 26 27 23 22 18 17 16 19
11 13 15 19 26 30 28 12 12 8 3 0 4 1 8 12 15 14 11 10 10 6 8 12 12 7 9 19 22 18 25 17 10 24 24 23 28 27 26 27 29 28 25 22 19 17 14 16 17
12 11 20 21 22 28 32 4 11 9 7 6 9 5 10 12 16 13 11 9 11 10 4 5 10 11 14 16 22 19 20 24 27 14 11 27 27 26 27 29 29 27 25 22 17 16 14 14 14
15 22 24 28 24 31 23 6 6 9 5 5 5 12 12 22 18 14 10 9 9 10 10 9 11 13 15 15 17 20 21 26 29 26 11 28 22 24 26 25 29 27 24 20 18 17 16 15 12
21 22 25 22 27 29 22 14 11 7 12 10 7 16 22 22 17 14 12 14 9 11 10 11 10 15 15 15 13 16 18 15 16 18 19 16 20 21 24 24 27 27 22 18 18 17 16 12 8
22 32 23 25 30 27 22 26 15 6 9 5 8 19 23 19 18 14 9 13 11 10 7 6 6 11 19 16 13 12 12 11 19 23 31 21 20 20 19 19 19 18 22 16 14 14 10 10 8
29 30 30 30 32 34 27 17 17 12 9 3 3 9 23 18 16 13 12 10 9 9 5 4 2 4 13 16 15 15 15 13 14 2 27 25 20 20 19 16 16 15 12 15 15 14 10 10 8
27 27 29 29 30 34 27 27 23 21 13 11 8 13 12 15 14 9 17 13 12 11 12 9 6 4 8 14 17 17 16 14 14 12 17 23 22 20 20 18 15 13 13 16 16 15 14 12 8
24 27 30 28 30 25 28 29 16 21 12 15 17 16 17 16 15 11 15 14 12 13 12 10 5 1 6 6 12 17 17 16 22 19 19 24 22 20 19 20 17 14 14 14 14 14 15 13 10
26 27 26 28 27 25 27 29 27 23 18 23 24 17 21 19 17 15 16 18 17 16 13 9 6 2 6 8 7 13 17 22 21 24 18 21 23 24 23 19 20 16 15 16 13 14 15 13 12
18 23 27 22 20 25 19 29 22 25 20 26 25 21 23 22 20 18 21 20 18 19 15 8 6 6 7 10 11 13 17 19 21 21 24 20 21 21 22 22 18 18 15 16 14 15 17 18 16
12 20 21 24 21 25 28 30 27 26 24 19 8 18 23 23 19 21 22 23 20 20 18 13 8 7 8 8 11 16 17 17 20 20 18 21 20 21 20 18 17 18 18 15 15 15 18 19 18
10 14 16 22 31 25 32 34 29 24 19 20 14 14 20 24 25 25 24 23 21 21 18 17 12 10 10 11 10 13 14 18 19 18 18 19 17 20 20 14 17 17 18 17 16 19 16 17 18
18 21 27 27 25 22 30 31 31 19 17 21 23 21 18 27 21 26 24 24 22 21 17 17 17 14 12 11 13 15 15 15 19 19 20 20 18 18 18 14 15 12 17 15 21 15 20 16 16
18 24 33 32 27 22 22 36 23 20 19 24 28 27 22 22 25 25 26 22 20 21 18 17 17 17 14 11 10 8 13 9 17 19 22 20 19 17 15 17 16 14 13 8 14 17 11 10 17
20 23 27 26 28 33 26 26 14 12 15 21 20 29 23 31 31 26 26 26 23 22 20 17 17 16 16 15 12 12 12 12 10 17 19 19 21 16 17 19 18 19 19 19 18 18 15 18 10
18 15 31 23 19 19 27 25 17 22 26 26 25 26 24 28 28 27 25 25 25 21 19 18 18 17 15 18 16 19 15 18 15 15 18 20 18 13 13 16 19 23 24 22 17 16 14 13 18
15 21 30 10 15 21 33 22 18 19 20 21 28 25 27 33 33 30 29 28 25 23 21 20 20 20 18 16 19 19 15 17 18 17 19 15 14 16 17 19 19 17 17 18 17 16 16 12 13
9 20 10 9 7 16 29 23 16 22 17 18 25 29 27 30 30 27 25 25 25 24 21 21 21 20 19 18 21 22 22 18 20 21 20 16 15 13 17 16 18 17 16 18 18 17 18 15 12
11 12 3 5 9 14 13 21 23 15 27 21 9 24 25 30 29 28 29 27 26 27 24 22 23 22 21 20 21 22 22 23 24 24 23 20 17 11 15 16 18 18 18 17 19 20 19 14 14
17 9 7 8 5 6 19 11 22 23 30 16 10 17 26 30 30 31 30 28 29 28 26 23 24 24 23 23 22 22 22 20 20 23 22 20 19 17 14 16 16 17 16 17 16 15 15 17 16
6 14 7 11 8 5 6 10 21 23 29 14 14 13 24 27 27 30 27 27 29 28 26 26 23 23 22 23 21 20 18 23 22 23 21 19 16 14 14 14 15 15 17 16 16 16 18 17 18
10 3 5 6 3 5 9 12 14 11 20 17 15 9 12 23 26 27 28 27 26 27 25 24 24 23 21 21 21 22 20 20 17 22 26 25 22 18 17 16 17 17 17 18 18 16 16 20 18
10 7 7 3 6 4 5 4 6 4 7 17 17 14 12 19 24 27 26 26 27 27 26 26 24 24 23 23 21 21 22 22 22 21 24 26 25 24 24 25 23 23 23 23 22 22 20 23 23
15 15 14 8 5 10 8 11 22 3 11 19 18 15 9 10 22 21 26 25 25 26 26 26 25 25 24 23 23 23 22 22 23 22 23 23 24 26 25 25 28 26 26 26 29 29 27 26 28
Wind_Direction
187 216 178 304 301 247 258 262 252 222 81 73 73 59 63 332 280 198 141 98 142 147 151 156 154 150 148 142 141 139 136 134 128 132 122 121 118 117 117 117 118 120 121 121 122 124 122 119 114
207 231 241 267 209 252 278 262 236 104 116 91 80 117 258 113 93 133 124 130 135 152 154 151 155 155 153 151 150 149 146 144 138 137 132 130 128 126 124 124 123 122 121 123 123 124 125 123 122
272 262 230 202 223 240 249 315 96 112 113 110 102 187 219 140 121 138 134 135 128 158 157 154 158 164 163 159 154 149 151 146 144 146 142 137 136 135 132 129 128 128 128 127 125 128 126 123 121
197 270 271 242 249 258 251 269 132 79 89 119 124 322 82 96 108 142 146 144 140 156 161 160 164 165 168 166 164 160 159 162 155 153 153 146 144 141 136 133 132 131 130 128 129 135 134 128 117
234 261 235 232 245 258 265 270 146 116 103 132 152 201 162 93 104 119 127 138 138 131 148 157 166 169 175 177 173 166 163 166 153 163 163 151 146 148 139 135 133 134 128 131 135 142 136 126 108
229 209 246 245 257 265 269 264 157 153 180 212 247 253 130 134 122 116 119 119 108 111 145 156 169 178 186 189 191 179 103 76 54 343 159 154 144 143 139 134 128 126 126 137 137 141 135 117 110
229 249 241 252 263 282 285 244 160 139 99 210 115 89 138 145 145 143 142 131 131 115 118 158 161 154 142 143 138 145 150 163 312 345 194 158 142 140 138 134 127 127 130 137 142 138 129 120 108
227 248 264 267 270 279 282 193 134 142 203 156 145 186 165 176 142 136 130 116 152 146 158 149 158 142 135 133 138 156 175 167 195 180 230 173 144 136 129 128 128 128 133 141 139 135 129 123 111
256 247 247 251 258 264 286 258 187 182 196 158 192 216 163 151 147 151 154 166 160 163 175 194 162 159 155 151 150 160 166 168 173 185 182 173 143 130 128 132 129 131 135 140 138 138 141 135 116
233 250 241 250 263 269 282 318 216 190 216 202 234 108 137 151 163 171 181 195 187 189 191 189 192 163 160 161 159 143 166 182 178 179 178 192 142 136 129 131 129 130 132 136 135 143 145 130 125
245 246 258 261 266 271 294 297 295 256 224 195 136 164 156 163 177 180 162 151 160 139 145 189 211 191 166 169 170 151 154 137 171 202 203 166 135 128 126 130 127 134 134 134 134 142 146 143 140
242 246 250 258 265 272 276 284 292 283 268 250 236 176 167 171 172 171 187 173 150 133 131 138 144 190 184 161 176 168 153 151 171 240 134 135 132 134 133 136 133 140 134 136 147 151 162 155 147
245 253 253 255 254 260 270 275 272 277 278 300 314 142 159 165 163 158 134 129 116 135 127 103 77 78 170 165 164 170 163 166 164 151 139 139 138 141 140 137 135 143 146 151 160 157 165 167 179
252 254 255 262 263 259 259 265 272 264 256 257 262 186 182 177 166 162 139 138 135 132 126 105 88 181 157 168 160 163 155 146 156 132 134 136 138 147 137 143 143 152 161 167 166 163 171 179 185
263 265 273 269 268 274 254 264 260 265 245 245 240 217 183 181 168 162 162 154 144 135 128 116 126 157 162 149 141 145 146 146 143 142 137 143 148 148 140 150 155 159 171 171 177 172 181 166 171
285 268 260 269 269 274 265 256 252 252 250 246 244 222 181 177 171 154 143 136 137 135 131 132 149 148 153 139 149 139 147 154 146 141 143 146 149 153 148 155 165 161 177 176 180 173 165 160 161
257 253 270 276 259 260 261 264 253 242 247 251 231 177 178 169 162 162 153 145 144 137 133 144 157 135 143 137 138 151 147 145 150 143 152 141 154 160 153 163 172 166 182 173 185 170 158 162 168
253 267 268 262 260 262 256 256 256 237 229 216 205 206 186 172 173 159 149 143 135 135 142 150 149 133 127 111 130 122 137 151 146 153 157 150 166 166 168 177 178 174 181 178 170 169 164 169 169
275 280 273 269 268 283 282 253 243 214 230 221 216 209 195 179 174 151 138 140 130 139 150 157 148 153 137 131 134 138 147 148 148 158 164 171 173 171 176 183 168 165 169 172 169 166 169 171 162
269 264 264 280 285 284 281 269 227 222 229 233 218 209 200 171 149 144 141 144 145 152 162 161 153 161 154 157 145 140 141 147 158 170 170 176 179 184 180 173 168 166 158 162 187 164 154 166 159
255 270 261 268 294 301 285 283 240 260 263 264 215 200 194 166 157 154 151 152 148 154 167 165 161 170 161 155 146 135 146 141 156 167 170 183 185 199 186 172 169 168 169 192 185 165 165 164 165
259 296 292 278 285 282 307 288 274 249 250 249 249 201 191 166 159 157 154 158 160 161 169 168 165 172 167 160 159 160 165 164 177 165 173 182 195 197 175 165 164 168 177 180 173 168 175 169 172
249 289 304 328 320 312 285 281 266 266 282 254 234 194 173 164 162 164 166 162 162 160 168 174 168 171 177 166 167 164 160 176 174 175 179 190 195 201 189 181 177 177 172 175 173 176 181 179 177
278 289 283 338 305 265 269 269 266 260 261 286 226 189 178 161 163 161 160 155 158 161 165 168 171 175 179 172 168 173 173 172 174 184 186 192 198 194 196 185 184 188 184 181 186 185 187 185 173
243 278 232 238 228 246 263 257 248 258 254 254 190 175 168 158 153 156 157 162 159 166 169 172 173 177 181 175 177 178 179 178 180 184 189 188 194 192 190 179 181 184 191 191 183 187 192 171 175
219 198 184 193 229 237 222 244 237 231 249 233 140 154 154 157 160 164 164 162 162 168 173 180 180 180 181 182 184 187 183 183 185 189 192 194 197 199 198 188 178 185 188 201 190 183 184 175 180
202 211 272 304 318 276 261 213 262 277 234 162 137 125 164 160 161 165 164 162 163 167 175 180 187 187 181 185 184 188 180 182 189 191 196 203 203 203 203 198 190 190 198 203 196 190 187 187 189
253 15 205 213 255 247 283 267 209 202 143 152 161 157 167 170 163 162 165 165 166 167 171 178 181 189 187 186 189 192 189 190 194 190 196 200 203 201 199 197 200 205 207 205 206 206 199 198 201
206 215 203 232 254 272 288 276 289 317 258 127 116 102 98 155 161 163 169 167 163 166 170 177 181 185 188 190 190 193 197 200 206 197 196 201 205 204 197 198 198 202 208 210 213 215 209 211 215
205 232 212 200 196 247 235 289 297 346 47 116 123 118 106 124 170 164 163 162 163 167 170 177 181 188 191 191 191 198 199 202 204 202 198 199 205 206 202 201 207 206 208 208 211 216 217 217 220